When you browse on this site, cookies collect data to enhance your experience and personalize the content and advertising you see.
Visit our Privacy Policy to learn more. By continuing to use the site, you agree to this use of cookies and data.

Hourly Weather Darwin

Today, 13 July, Monday

Time Temperature Precipitation Wind Pressure Humidity
00:00 +25°C° 0 mm 3 mps 759 mmHg 43%
01:00 +23°C° 0 mm 4 mps 759 mmHg 44%
02:00 +22°C° 0 mm 5 mps 759 mmHg 45%
03:00 +21°C° 0 mm 6 mps 759 mmHg 46%
04:00 +20°C° 0 mm 6 mps 760 mmHg 48%
05:00 +19°C° 0 mm 6 mps 760 mmHg 50%
06:00 +19°C° 0 mm 6 mps 760 mmHg 52%
07:00 +21°C° 0 mm 7 mps 760 mmHg 44%
08:00 +23°C° 0 mm 7 mps 761 mmHg 37%
09:00 +26°C° 0 mm 7 mps 761 mmHg 27%
10:00 +28°C° 0 mm 7 mps 761 mmHg 24%
11:00 +30°C° 0 mm 6 mps 760 mmHg 22%
12:00 +33°C° 0 mm 6 mps 760 mmHg 19%
13:00 +34°C° 0 mm 5 mps 759 mmHg 19%
14:00 +35°C° 0 mm 4 mps 759 mmHg 19%
15:00 +35°C° 0 mm 4 mps 758 mmHg 20%
16:00 +34°C° 0 mm 3 mps 758 mmHg 22%
17:00 +31°C° 0 mm 2 mps 758 mmHg 25%
18:00 +29°C° 0 mm 1 mps 758 mmHg 27%
19:00 +27°C° 0 mm 2 mps 759 mmHg 27%
20:00 +25°C° 0 mm 3 mps 759 mmHg 26%
21:00 +24°C° 0 mm 3 mps 760 mmHg 26%
22:00 +22°C° 0 mm 4 mps 760 mmHg 26%
23:00 +22°C° 0 mm 6 mps 760 mmHg 26%

Tomorrow, 14 July, Tuesday

Time Temperature Precipitation Wind Pressure Humidity
00:00 +21°C° 0 mm 7 mps 760 mmHg 26%
01:00 +20°C° 0 mm 6 mps 760 mmHg 29%
02:00 +19°C° 0 mm 6 mps 760 mmHg 32%
03:00 +17°C° 0 mm 6 mps 760 mmHg 35%
04:00 +16°C° 0 mm 6 mps 760 mmHg 37%
05:00 +15°C° 0 mm 6 mps 760 mmHg 39%
06:00 +14°C° 0 mm 6 mps 760 mmHg 41%
07:00 +17°C° 0 mm 6 mps 760 mmHg 38%
08:00 +20°C° 0 mm 7 mps 761 mmHg 35%
09:00 +22°C° 0 mm 7 mps 761 mmHg 32%
10:00 +24°C° 0 mm 6 mps 761 mmHg 27%
11:00 +28°C° 0 mm 5 mps 760 mmHg 22%
12:00 +32°C° 0 mm 4 mps 759 mmHg 17%
13:00 +33°C° 0 mm 4 mps 759 mmHg 17%
14:00 +34°C° 0 mm 3 mps 758 mmHg 16%
15:00 +35°C° 0 mm 2 mps 758 mmHg 16%
16:00 +31°C° 0 mm 2 mps 758 mmHg 25%
17:00 +28°C° 0 mm 2 mps 758 mmHg 34%
18:00 +25°C° 0 mm 2 mps 758 mmHg 42%
19:00 +24°C° 0 mm 2 mps 758 mmHg 46%
20:00 +21°C° 0 mm 2 mps 759 mmHg 49%
21:00 +20°C° 0 mm 2 mps 760 mmHg 52%
22:00 +20°C° 0 mm 2 mps 760 mmHg 47%
23:00 +19°C° 0 mm 2 mps 760 mmHg 41%

Day after tomorrow, 15 July, Wednesday

Time Temperature Precipitation Wind Pressure Humidity
00:00 +18°C° 0 mm 2 mps 760 mmHg 36%
01:00 +18°C° 0 mm 3 mps 760 mmHg 37%
02:00 +18°C° 0 mm 4 mps 759 mmHg 39%
03:00 +18°C° 0 mm 4 mps 759 mmHg 40%
04:00 +16°C° 0 mm 5 mps 759 mmHg 47%
05:00 +16°C° 0 mm 5 mps 759 mmHg 54%
06:00 +16°C° 0 mm 5 mps 760 mmHg 61%
07:00 +19°C° 0 mm 5 mps 760 mmHg 58%
08:00 +21°C° 0 mm 5 mps 760 mmHg 55%
09:00 +23°C° 0 mm 6 mps 761 mmHg 52%
10:00 +27°C° 0 mm 5 mps 760 mmHg 47%
11:00 +29°C° 0 mm 4 mps 759 mmHg 42%
12:00 +33°C° 0 mm 3 mps 759 mmHg 37%
13:00 +34°C° 0 mm 3 mps 758 mmHg 35%
14:00 +35°C° 0 mm 3 mps 757 mmHg 34%
15:00 +36°C° 0 mm 4 mps 756 mmHg 32%
16:00 +33°C° 0 mm 3 mps 756 mmHg 43%
17:00 +29°C° 0 mm 2 mps 756 mmHg 54%
18:00 +26°C° 0 mm 2 mps 756 mmHg 65%
19:00 +25°C° 0 mm 2 mps 757 mmHg 70%
20:00 +24°C° 0 mm 2 mps 758 mmHg 75%
21:00 +22°C° 0 mm 3 mps 758 mmHg 80%
22:00 +21°C° 0 mm 3 mps 758 mmHg 77%
23:00 +21°C° 0 mm 3 mps 758 mmHg 73%

16 July, Thursday

Time Temperature Precipitation Wind Pressure Humidity
00:00 +20°C° 0 mm 3 mps 759 mmHg 69%
01:00 +20°C° 0 mm 4 mps 759 mmHg 63%
02:00 +20°C° 0 mm 5 mps 759 mmHg 57%
03:00 +21°C° 0 mm 6 mps 758 mmHg 51%
04:00 +19°C° 0 mm 6 mps 759 mmHg 56%
05:00 +17°C° 0 mm 6 mps 759 mmHg 60%
06:00 +16°C° 0 mm 5 mps 759 mmHg 64%
07:00 +20°C° 0 mm 6 mps 759 mmHg 56%
08:00 +22°C° 0 mm 6 mps 760 mmHg 47%
09:00 +26°C° 0 mm 7 mps 760 mmHg 38%
10:00 +28°C° 0 mm 6 mps 760 mmHg 34%
11:00 +32°C° 0 mm 5 mps 759 mmHg 31%
12:00 +35°C° 0 mm 4 mps 758 mmHg 27%
13:00 +36°C° 0 mm 4 mps 758 mmHg 26%
14:00 +36°C° 0 mm 4 mps 757 mmHg 25%
15:00 +37°C° 0 mm 4 mps 756 mmHg 25%
16:00 +34°C° 0 mm 3 mps 756 mmHg 34%
17:00 +30°C° 0 mm 3 mps 756 mmHg 44%
18:00 +28°C° 0 mm 2 mps 757 mmHg 53%
19:00 +26°C° 0 mm 2 mps 757 mmHg 58%
20:00 +25°C° 0 mm 2 mps 758 mmHg 63%
21:00 +23°C° 0 mm 2 mps 758 mmHg 69%
22:00 +23°C° 0 mm 2 mps 758 mmHg 70%
23:00 +21°C° 0 mm 2 mps 758 mmHg 71%

17 July, Friday

Time Temperature Precipitation Wind Pressure Humidity
00:00 +20°C° 0 mm 2 mps 758 mmHg 72%
01:00 +20°C° 0 mm 2 mps 758 mmHg 71%
02:00 +20°C° 0 mm 2 mps 758 mmHg 70%
03:00 +20°C° 0 mm 2 mps 758 mmHg 69%
04:00 +20°C° 0 mm 3 mps 758 mmHg 66%
05:00 +19°C° 0 mm 3 mps 758 mmHg 63%
06:00 +19°C° 0 mm 4 mps 758 mmHg 60%
07:00 +21°C° 0 mm 4 mps 759 mmHg 54%
08:00 +22°C° 0 mm 4 mps 759 mmHg 49%
09:00 +25°C° 0 mm 5 mps 759 mmHg 44%
10:00 +28°C° 0 mm 4 mps 759 mmHg 37%
11:00 +32°C° 0 mm 4 mps 759 mmHg 31%
12:00 +35°C° 0 mm 3 mps 758 mmHg 24%
13:00 +35°C° 0 mm 3 mps 757 mmHg 24%
14:00 +36°C° 0 mm 4 mps 757 mmHg 23%
15:00 +37°C° 0 mm 4 mps 756 mmHg 23%
16:00 +33°C° 0 mm 4 mps 756 mmHg 34%
17:00 +29°C° 0 mm 3 mps 756 mmHg 45%
18:00 +26°C° 0 mm 3 mps 756 mmHg 56%
19:00 +25°C° 0 mm 2 mps 757 mmHg 61%
20:00 +24°C° 0 mm 2 mps 757 mmHg 67%
21:00 +23°C° 0 mm 2 mps 758 mmHg 72%
22:00 +21°C° 0 mm 2 mps 758 mmHg 73%
23:00 +22°C° 0 mm 1 mps 758 mmHg 74%

18 July, Saturday

Time Temperature Precipitation Wind Pressure Humidity
00:00 +21°C° 0 mm 1 mps 758 mmHg 75%
01:00 +21°C° 0 mm 1 mps 758 mmHg 77%
02:00 +21°C° 0 mm 1 mps 758 mmHg 80%
03:00 +21°C° 0 mm 1 mps 758 mmHg 82%
04:00 +21°C° 0 mm 1 mps 758 mmHg 85%
05:00 +20°C° 0 mm 2 mps 758 mmHg 89%
06:00 +20°C° 0 mm 2 mps 758 mmHg 92%
07:00 +23°C° 0 mm 2 mps 759 mmHg 83%
08:00 +25°C° 0 mm 3 mps 759 mmHg 74%
09:00 +27°C° 0 mm 3 mps 759 mmHg 65%
10:00 +30°C° 0 mm 3 mps 759 mmHg 53%
11:00 +32°C° 0 mm 2 mps 758 mmHg 41%
12:00 +36°C° 0 mm 2 mps 758 mmHg 30%
13:00 +36°C° 0 mm 3 mps 757 mmHg 29%
14:00 +36°C° 0 mm 3 mps 757 mmHg 28%
15:00 +36°C° 0 mm 4 mps 756 mmHg 28%
16:00 +33°C° 0 mm 4 mps 756 mmHg 38%
17:00 +30°C° 0 mm 3 mps 756 mmHg 48%
18:00 +27°C° 0 mm 2 mps 756 mmHg 58%
19:00 +25°C° 0 mm 2 mps 757 mmHg 64%
20:00 +24°C° 0 mm 2 mps 757 mmHg 69%
21:00 +23°C° 0 mm 2 mps 758 mmHg 75%
22:00 +21°C° 0 mm 2 mps 758 mmHg 79%
23:00 +22°C° 0 mm 1 mps 758 mmHg 82%
Show more